Terminal Aerodrome Forecast
Issued by NWS Greer, SC

Home | Current Version | Previous Version | Text Only | Print | Product List | Glossary On
Versions: 1 2 3 4 5 6 7 8 9 10 11 12 13 14 15 16 17 18 19 20 21 22 23 24 25 26 27 28 29 30 31 32 33 34 35 36 37 38 39 40 41 42 43 44 45
000
FTUS42 KGSP 301503 AAB
TAFCLT
TAF AMD
KCLT 301503Z 3015/3112 17006KT P6SM SCT030 SCT250
      TEMPO 3015/3017 BKN030 BKN250
     FM301800 17007KT P6SM BKN045
     FM310600 18008KT P6SM BKN030
     FM310800 19005KT P6SM BKN018=

USA.gov is the U.S. government's official web portal to all federal, state and local government web resources and services.